ZHUHAI-1 02 (CAS-4B)

Last updated on Mon Sep 15 2025 00:02:31 GMT+0000 (Coordinated Universal Time)

1 42759U 17034B 25256.86593145 .00232711 00000+0 10209-2 0 9992 2 42759 43.0000 101.5952 0023721 257.2671 102.5549 15.82763891457747
UTC large
Height (km)
Speed (km/s)
/
Latitude / Longitude
Inclination (degrees)
Orbital Period (minutes)
Azimuth
Elevation
Range (km)
Doppler Factor

Next 0 passes for location: London (51.5072 / 0.1276)

Sorry there are no passes over London.